Location: Fort Wayne
(41.1310°N, 85.1290°W)
Time: 00:02:00
(UTC-05:00)

Courier 1B Rocket - All Passes

Search period start: 29 November 2014 00:00
Search period end: 09 December 2014 00:00
Orbit: 920 x 1202 km, 28.2° (Epoch: 26 November)

Date Brightness Start Highest point End Pass type
(mag) Time Alt. Az. Time Alt. Az. Time Alt. Az.
29 Nov - 11:00:49 10° S 11:03:56 13° SSE 11:07:02 10° SE daylight
29 Nov - 12:50:41 10° SW 12:56:36 25° SSE 13:02:17 10° ESE daylight
29 Nov - 14:43:15 10° WSW 14:49:25 29° S 14:55:15 10° SE daylight
29 Nov - 16:37:03 10° WSW 16:42:03 21° SSW 16:46:50 10° SSE daylight
30 Nov - 11:50:12 10° SSW 11:55:44 22° SSE 12:01:08 10° ESE daylight
30 Nov - 13:42:13 10° SW 13:48:33 29° S 13:54:35 10° ESE daylight
30 Nov - 15:35:36 10° WSW 15:41:19 25° SSW 15:46:44 10° SE daylight
30 Nov - 17:31:16 10° SW 17:33:44 12° SSW 17:36:08 10° S daylight
01 Dec - 10:50:04 10° SSW 10:54:53 18° SSE 10:59:38 10° ESE daylight
01 Dec - 12:41:19 10° SW 12:47:39 28° S 12:53:45 10° ESE daylight
01 Dec - 14:34:19 10° WSW 14:40:30 28° S 14:46:22 10° SE daylight
01 Dec - 16:28:46 10° WSW 16:33:05 17° SSW 16:37:14 10° SSE daylight
02 Dec - 09:50:37 10° S 09:54:04 13° SSE 09:57:31 10° SE daylight
02 Dec - 11:40:36 10° SW 11:46:45 26° SSE 11:52:44 10° ESE daylight
02 Dec - 13:33:10 10° WSW 13:39:38 30° S 13:45:48 10° SE daylight
02 Dec - 15:27:00 10° WSW 15:32:21 22° SSW 15:37:28 10° SSE daylight
03 Dec - 10:40:09 10° SSW 10:45:51 22° SSE 10:51:30 10° ESE daylight
03 Dec - 12:32:09 10° SW 12:38:43 30° S 12:45:03 10° ESE daylight
03 Dec - 14:25:32 10° WSW 14:31:33 26° SSW 14:37:18 10° SE daylight
03 Dec - 16:21:04 10° SW 16:24:02 13° SSW 16:26:57 10° S daylight
04 Dec - 09:40:04 10° SSW 09:44:59 18° SSE 09:49:55 10° ESE daylight
04 Dec - 11:31:17 10° SW 11:37:46 29° S 11:44:08 10° ESE daylight
04 Dec - 13:24:15 10° WSW 13:30:41 29° S 13:36:52 10° SE daylight
04 Dec - 15:18:40 10° WSW 15:23:20 18° SSW 15:27:51 10° SSE daylight
05 Dec - 08:40:39 10° S 08:44:11 14° SSE 08:47:44 10° SE daylight
05 Dec - 10:30:37 10° SW 10:36:50 26° SSE 10:43:01 10° ESE daylight
05 Dec - 12:23:08 10° WSW 12:29:45 31° S 12:36:12 10° SE daylight
05 Dec - 14:16:55 10° WSW 14:22:33 22° SSW 14:27:59 10° SSE daylight
06 Dec - 09:30:14 10° SSW 09:35:56 23° SSE 09:41:41 10° ESE daylight
06 Dec - 11:22:10 10° SW 11:28:48 31° S 11:35:22 10° ESE daylight
06 Dec - 13:15:29 10° WSW 13:21:42 26° SSW 13:27:44 10° SE daylight
06 Dec - 15:10:53 10° SW 15:14:16 13° SSW 15:17:35 10° S daylight
07 Dec - 08:30:14 10° SSW 08:35:05 18° SSE 08:40:02 10° ESE daylight
07 Dec - 10:21:22 10° SW 10:27:50 29° S 10:34:21 10° ESE daylight
07 Dec - 12:14:15 10° WSW 12:20:47 30° S 12:27:12 10° SE daylight
07 Dec - 14:08:35 10° WSW 14:13:31 18° SSW 14:18:19 10° SSE daylight
08 Dec - 07:30:56 10° S 07:34:18 14° SSE 07:37:44 10° SE daylight
08 Dec - 09:20:47 10° SW 09:26:55 26° SSE 09:33:09 10° ESE daylight
08 Dec - 11:13:12 10° WSW 11:19:50 31° S 11:26:26 10° SE daylight
08 Dec - 13:06:54 10° WSW 13:12:41 23° SSW 13:18:21 10° SSE daylight
